Weather History for Rickenbacker, OH

Change the Weather History Date:

Monday, December 9, 2013

  Actual Average Record
Temperature  
Mean Temperature 31 °F -  
Max Temperature 34 °F 42 °F 54 °F (2008)
Min Temperature 27 °F 29 °F 14 °F (2010)
Degree Days  
Heating Degree Days 34    
Moisture  
Dew Point 26 °F    
Average Humidity 77    
Maximum Humidity 92    
Minimum Humidity 65    
Precipitation  
Precipitation 0.00 in - - ()
Sea Level Pressure  
Sea Level Pressure 30.10 in    
Wind  
Wind Speed 9 mph (WSW)    
Max Wind Speed 20 mph    
Max Gust Speed 25 mph    
Visibility 9 miles    
Events      
Averages and records for this station are not official NWS values.
T = Trace of Precipitation, MM = Missing Value Source: NWS Daily Summary

Daily Weather History Graph

Daily Weather History Graph

Search for Another Location

Airport:

Trip Planner

Search our weather history database for the weather conditions in past years. The results will help you decide how hot, cold, wet, or windy it might be!

Date:

Astronomy

Dec. 09, 2013 Rise Set
Actual Time 7:41 AM EST 5:06 PM EST
Civil Twilight 7:11 AM EST 5:37 PM EST
Nautical Twilight 6:37 AM EST 6:10 PM EST
Astronomical Twilight 6:04 AM EST 6:43 PM EST
Moon 12:34 PM EST (12/9) No Moon Set
Length of Visible Light 10h 26m
Length of Day
9h 25m
Waxing Crescent, 51% of the Moon is Illuminated
Dec 9
Waxing Crescent
Dec 17
Full
Dec 25
Last Quarter
Jan 1
New
Jan 7
First Quarter

Hourly Weather History & Observations

Time (EST) Temp. Windchill Dew Point Humidity Pressure Visibility Wind Dir Wind Speed Gust Speed Precip Events Conditions
12:15 AM 32.5 °F - 30.2 °F 91% 30.01 in 1.5 mi Calm Calm - N/A   Overcast
12:35 AM 32.9 °F 29.8 °F 30.4 °F 90% 30.00 in 1.8 mi SSW 3.5 mph - N/A   Overcast
12:55 AM 33.1 °F 30.0 °F 30.7 °F 91% 29.99 in 2.0 mi South 3.5 mph - N/A   Overcast
1:15 AM 33.1 °F 28.7 °F 30.9 °F 92% 29.98 in 2.0 mi South 4.6 mph - N/A   Overcast
1:35 AM 33.3 °F 27.1 °F 30.9 °F 91% 29.97 in 2.5 mi South 6.9 mph - N/A   Overcast
1:55 AM 33.6 °F 26.8 °F 31.3 °F 91% 29.98 in 4.0 mi South 8.1 mph - N/A   Overcast
2:15 AM 33.8 °F 27.7 °F 31.6 °F 92% 29.97 in 4.0 mi South 6.9 mph - N/A   Overcast
2:35 AM 34.2 °F 27.5 °F 31.8 °F 91% 29.97 in 3.0 mi SSW 8.1 mph - N/A   Overcast
2:55 AM 34.5 °F 27.9 °F 31.8 °F 90% 29.97 in 3.0 mi South 8.1 mph - N/A   Overcast
3:15 AM 34.7 °F 27.5 °F 32.0 °F 90% 29.97 in 5.0 mi South 9.2 mph - N/A   Overcast
3:35 AM 34.9 °F 27.1 °F 32.0 °F 89% 29.97 in 5.0 mi SSW 10.4 mph - N/A   Overcast
3:55 AM 34.9 °F 27.1 °F 32.0 °F 89% 29.98 in 7.0 mi SSW 10.4 mph - N/A   Overcast
4:15 AM 34.7 °F 26.9 °F 32.0 °F 90% 29.98 in 7.0 mi SSW 10.4 mph - N/A   Overcast
4:35 AM 34.7 °F 27.5 °F 32.0 °F 90% 29.97 in 7.0 mi SSW 9.2 mph - N/A   Overcast
4:55 AM 34.7 °F 28.1 °F 32.0 °F 90% 29.98 in 7.0 mi SSW 8.1 mph - N/A   Overcast
5:35 AM 34.7 °F 28.8 °F 32.0 °F 90% 30.00 in 10.0 mi SW 6.9 mph - N/A   Overcast
5:55 AM 34.9 °F 27.1 °F 32.0 °F 89% 30.01 in 10.0 mi SW 10.4 mph - N/A   Overcast
6:15 AM 34.9 °F 27.7 °F 32.0 °F 89% 30.01 in 10.0 mi SW 9.2 mph - N/A   Overcast
6:35 AM 34.9 °F 28.3 °F 31.8 °F 89% 30.01 in 10.0 mi SW 8.1 mph - N/A   Overcast
6:55 AM 34.7 °F 27.5 °F 31.6 °F 89% 30.02 in 10.0 mi SW 9.2 mph - N/A   Overcast
7:15 AM 34.7 °F 26.4 °F 31.6 °F 89% 30.03 in 10.0 mi WSW 11.5 mph - N/A   Overcast
7:35 AM 34.7 °F 26.9 °F 31.3 °F 87% 30.04 in 10.0 mi SW 10.4 mph - N/A   Overcast
7:55 AM 34.7 °F 26.9 °F 30.9 °F 86% 30.04 in 10.0 mi SW 10.4 mph - N/A   Overcast
8:15 AM 34.7 °F 25.9 °F 30.7 °F 85% 30.06 in 10.0 mi WSW 12.7 mph - N/A   Overcast
8:35 AM 34.7 °F 26.4 °F 30.6 °F 85% 30.06 in 10.0 mi WSW 11.5 mph - N/A   Overcast
8:55 AM 34.9 °F 25.3 °F 30.4 °F 84% 30.07 in 10.0 mi WSW 15.0 mph 19.6 mph N/A   Overcast
9:15 AM 34.9 °F 23.9 °F 29.8 °F 82% 30.08 in 10.0 mi WSW 19.6 mph 24.2 mph N/A   Overcast
9:35 AM 34.7 °F 25.5 °F 29.3 °F 81% 30.09 in 10.0 mi West 13.8 mph - N/A   Overcast
9:55 AM 34.5 °F 25.7 °F 29.3 °F 81% 30.09 in 10.0 mi West 12.7 mph 17.3 mph N/A   Overcast
10:15 AM 34.7 °F 25.5 °F 28.0 °F 77% 30.11 in 10.0 mi West 13.8 mph 17.3 mph N/A   Overcast
10:35 AM 34.7 °F 23.7 °F 27.0 °F 73% 30.13 in 10.0 mi West 19.6 mph 25.3 mph N/A   Overcast
10:55 AM 34.2 °F 24.8 °F 25.0 °F 69% 30.13 in 10.0 mi West 13.8 mph - N/A   Overcast
11:15 AM 33.8 °F 23.5 °F 24.6 °F 69% 30.14 in 10.0 mi West 16.1 mph - N/A   Overcast
11:35 AM 33.4 °F 23.1 °F 25.0 °F 71% 30.14 in 10.0 mi West 16.1 mph 21.9 mph N/A   Overcast
11:55 AM 33.4 °F 23.5 °F 24.6 °F 70% 30.14 in 10.0 mi West 15.0 mph - N/A   Overcast
12:15 PM 33.3 °F 23.2 °F 24.3 °F 70% 30.13 in 10.0 mi West 15.0 mph 20.7 mph N/A   Overcast
12:35 PM 33.1 °F 22.6 °F 23.7 °F 68% 30.13 in 10.0 mi West 16.1 mph - N/A   Overcast
12:55 PM 32.9 °F 24.7 °F 23.4 °F 68% 30.12 in 10.0 mi WSW 10.4 mph - N/A   Overcast
1:15 PM 32.9 °F 23.7 °F 23.4 °F 68% 30.10 in 10.0 mi WSW 12.7 mph - N/A   Overcast
1:35 PM 32.7 °F 24.5 °F 23.0 °F 67% 30.11 in 10.0 mi WSW 10.4 mph - N/A   Overcast
1:55 PM 32.5 °F 22.3 °F 23.5 °F 69% 30.13 in 10.0 mi WSW 15.0 mph - N/A   Overcast
2:15 PM 32.5 °F 21.9 °F 23.4 °F 69% 30.13 in 10.0 mi WSW 16.1 mph - N/A   Overcast
2:35 PM 32.4 °F 22.1 °F 23.2 °F 69% 30.13 in 10.0 mi WSW 15.0 mph - N/A   Overcast
2:55 PM 32.2 °F 22.7 °F 23.2 °F 69% 30.15 in 10.0 mi WSW 12.7 mph - N/A   Overcast
3:15 PM 32.0 °F 23.0 °F 23.5 °F 71% 30.15 in 10.0 mi West 11.5 mph - N/A   Overcast
3:35 PM 32.0 °F 23.6 °F 23.9 °F 72% 30.15 in 10.0 mi West 10.4 mph - N/A   Overcast
3:55 PM 32.0 °F 22.5 °F 23.7 °F 71% 30.16 in 10.0 mi WSW 12.7 mph 17.3 mph N/A   Overcast
4:15 PM 32.0 °F 22.5 °F 23.4 °F 70% 30.16 in 10.0 mi WSW 12.7 mph - N/A   Overcast
4:35 PM 32.0 °F 23.6 °F 23.0 °F 69% 30.17 in 10.0 mi WSW 10.4 mph 15.0 mph N/A   Overcast
4:55 PM 32.0 °F 23.0 °F 23.0 °F 69% 30.17 in 10.0 mi WSW 11.5 mph - N/A   Overcast
5:15 PM 31.8 °F 21.4 °F 22.5 °F 68% 30.17 in 10.0 mi WSW 15.0 mph - N/A   Overcast
5:35 PM 31.6 °F 22.6 °F 22.1 °F 68% 30.18 in 10.0 mi WSW 11.5 mph - N/A   Overcast
5:55 PM 31.6 °F 23.7 °F 22.6 °F 69% 30.18 in 10.0 mi WSW 9.2 mph - N/A   Overcast
6:15 PM 31.5 °F 22.9 °F 22.8 °F 70% 30.18 in 10.0 mi WSW 10.4 mph - N/A   Overcast
6:35 PM 31.5 °F 21.8 °F 23.0 °F 71% 30.19 in 10.0 mi WSW 12.7 mph - N/A   Overcast
6:55 PM 31.3 °F 20.7 °F 21.9 °F 68% 30.20 in 10.0 mi West 15.0 mph - N/A   Overcast
7:15 PM 30.7 °F 21.4 °F 20.1 °F 65% 30.21 in 10.0 mi West 11.5 mph 21.9 mph N/A   Overcast
7:35 PM 30.0 °F 21.1 °F 19.6 °F 65% 30.20 in 10.0 mi WSW 10.4 mph - N/A   Overcast
7:55 PM 29.7 °F 20.1 °F 19.4 °F 66% 30.20 in 10.0 mi West 11.5 mph - N/A   Overcast
8:15 PM 29.5 °F 21.8 °F 19.9 °F 68% 30.21 in 10.0 mi West 8.1 mph - N/A   Scattered Clouds
8:35 PM 29.3 °F 20.8 °F 20.3 °F 69% 30.20 in 10.0 mi West 9.2 mph - N/A   Clear
8:55 PM 29.3 °F 19.6 °F 20.3 °F 69% 30.19 in 10.0 mi West 11.5 mph - N/A   Mostly Cloudy
9:15 PM 29.3 °F 21.5 °F 19.6 °F 67% 30.18 in 10.0 mi West 8.1 mph - N/A   Mostly Cloudy
9:35 PM 29.3 °F 23.2 °F 19.8 °F 68% 30.18 in 10.0 mi WSW 5.8 mph - N/A   Scattered Clouds
9:55 PM 28.9 °F 22.8 °F 19.9 °F 69% 30.17 in 10.0 mi WSW 5.8 mph - N/A   Clear
10:15 PM 28.6 °F 20.7 °F 20.3 °F 71% 30.17 in 10.0 mi West 8.1 mph - N/A   Clear
10:35 PM 28.4 °F 23.3 °F 20.3 °F 72% 30.16 in 10.0 mi WSW 4.6 mph - N/A   Clear
10:55 PM 28.2 °F 19.5 °F 20.1 °F 72% 30.18 in 10.0 mi WSW 9.2 mph - N/A   Clear
11:15 PM 28.0 °F 20.8 °F 19.4 °F 70% 30.18 in 10.0 mi West 6.9 mph - N/A   Clear
11:35 PM 28.0 °F 20.0 °F 19.2 °F 70% 30.18 in 10.0 mi West 8.1 mph - N/A   Clear
11:55 PM 27.9 °F 20.6 °F 19.0 °F 69% 30.17 in 10.0 mi West 6.9 mph - N/A   Scattered Clouds